www.pogodaiklimat.ru

Погода и климат >> Архив погоды >> Россия >> Краснодарский край >> Сосыка


ПОГОДА в Сосыке

  • Прогноз погоды в Сосыке
  • Монитор погоды в Сосыке

АРХИВ ПОГОДЫ в Сосыке

Время (UTC), дата Ветер
(напр.,м/с)
 
Видим.   Явления Облачность Т
(С)
Тd
(С)
f
(%)
Тe
(С)
Тes
(С)
Комфортность P
(гПа)
Po
(гПа)
Тmin
(С)
Tmax
(С)
R
(мм)
R24
(мм)
S
(см)
21 10.06 СВ 1 10 км ясно +21.3 +10.0 48 +23 +23 комфорт 1013.5 1007.1
00 11.06 СВ 1 10 км ясно +18.7 +9.3 54 +20 +20 1012.9 1006.5
03 11.06 В 1 10 км ясно +18.9 +9.9 56 +21 +22 комфорт 1013.3 1006.8 +17.8
06 11.06 В 2 10 км 6/0
[Ci fib]
+26.0 +10.9 39 +27 +36 жарко 1013.2 1006.9
09 11.06 СВ 2 10 км 8/0
[Ac As Cs]
+30.4 +11.1 30 +31 +44 жарко 1011.9 1005.7
12 11.06 СВ 2
{10}
10 км 10/3 600 м
[Cb calv Ac As Ci sp]
+33.3 +10.4 25 +33 +37 жарко 1010.4 1004.3
15 11.06 СВ 1 10 км 10/4 600 м
[Cb calv Ac trans Ci sp]
+31.7 +12.2 30 +32 +33 жарко 1008.9 1002.7 +33.5
18 11.06 СВ 1 10 км 10/0
[Ac As Ci sp]
+26.4 +11.4 39 +28 +28 жарко 1009.6 1003.3
21 11.06 В 2 10 км 10/10 600 м
[Sc]
+25.8 +10.4 38 +27 +27 жарко 1009.9 1003.6
00 12.06 СВ 1 10 км 9/9 600 м
[Sc]
+22.9 +11.1 47 +25 +25 комфорт 1009.1 1002.8
03 12.06 В 2 10 км 8/8 600 м
[Cb calv]
+22.3 +10.8 48 +24 +24 комфорт 1009.7 1003.3 +21.6
06 12.06 В 3 10 км {ливн. осадки} 8/0
[Ac trans Ci fib]
+26.1 +12.7 43 +28 +32 жарко 1009.3 1003.0
09 12.06 В 4
{10}
10 км 9/4 600 м
[Sc Ac trans Ci fib]
+29.3 +11.8 34 +30 +34 жарко 1009.4 1003.2
12 12.06 В 2 10 км в посл. час ливневой дождь 10/10 600 м
[Cb calv]
+29.5 +13.5 37 +31 +31 жарко 1009.2 1003.0
15 12.06 штиль 0 10 км 10/8 600 м
[Cb calv Ac trans]
+29.2 +14.4 40 +31 +32 жарко 1008.2 1002.0 +31.9
18 12.06 штиль 0 10 км 10/10 600 м
[Cb calv]
+26.3 +12.9 43 +28 +28 жарко 1009.2 1003.0
21 12.06 штиль 0 10 км 8/8 600 м
[Cb calv]
+22.6 +14.3 59 +26 +26 жарко 1009.1 1002.7
00 13.06 штиль 0 10 км 10/10 600 м
[Cb calv]
+19.5 +14.1 71 +21 +21 комфорт 1009.0 1002.6
03 13.06 В 1 10 км 8/8 600 м
[Cb calv]
+21.4 +11.3 53 +23 +24 комфорт 1009.4 1003.0 +19.0
06 13.06 В 2 10 км 10/0
[Ci]
+26.9 +11.6 39 +28 +37 жарко 1010.7 1004.4
09 13.06 СВ 2 10 км 10/0
[Ac trans Ci]
+31.8 +9.1 25 +31 +44 жарко 1010.9 1004.7
12 13.06 В 3
{13}
10 км слаб. ливневой дождь 10/10 600 м
[Cb calv]
+25.7 +11.6 41 +27 +27 жарко 1011.9 1005.6
15 13.06 ЮВ 2 10 км {ливн. осадки} 10/8 600 м
[Cb calv Ac As]
+25.9 +12.2 43 +27 +28 жарко 1011.5 1005.2 +32.7 2
18 13.06 СВ 1 10 км {ливн. осадки} 8/0
[Ac trans]
+21.3 +14.8 66 +24 +24 комфорт 1012.4 1006.0
21 13.06 штиль 0 10 км 8/5 600 м
[Sc Ac As]
+19.7 +14.7 73 +21 +21 комфорт 1013.0 1006.5
00 14.06 В 1 10 км 10/10 600 м
[Sc]
+19.9 +13.9 68 +23 +23 комфорт 1013.4 1007.0
03 14.06 СВ 1 10 км 8/0
[Ci sp]
+20.0 +12.6 62 +23 +24 комфорт 1014.9 1008.5 +19.3
06 14.06 СВ 2 10 км 10/0
[Ci fib]
+23.4 +10.4 44 +25 +34 комфорт 1016.2 1009.8
09 14.06 СВ 2 10 км 10/0
[Ci fib]
+27.1 +9.9 34 +28 +43 жарко 1016.3 1010.0
12 14.06 СВ 2
{10}
10 км 10/0
[Ci fib]
+30.3 +10.4 29 +30 +41 жарко 1015.0 1008.7
15 14.06 СВ 1 10 км 10/0
[Ci fib]
+29.0 +9.2 29 +29 +31 жарко 1014.4 1008.1 +30.5
18 14.06 С 1 10 км 4/0
[Ci fib]
+22.5 +8.8 42 +24 +24 комфорт 1014.9 1008.5
21 14.06 С 1 10 км ясно +19.1 +5.3 40 +21 +21 комфорт 1014.3 1007.8
00 15.06 СВ 1 10 км ясно +16.9 +4.0 42 +18 +18 1014.0 1007.5
03 15.06 СВ 1 10 км ясно +17.5 +4.7 43 +19 +20 1014.0 1007.5 +15.8
06 15.06 СВ 1 10 км ясно +26.3 +13.5 45 +28 +41 жарко 1013.6 1007.3
09 15.06 В 3 10 км 3/0
[Ci sp]
+31.5 +9.7 26 +31 +46 жарко 1013.0 1006.8
12 15.06 С 2 10 км 3/0
[Ci sp]
+32.8 +9.1 23 +32 +44 жарко 1011.4 1005.3
15 15.06 С 1 10 км ясно +31.4 +7.5 23 +30 +33 жарко 1010.1 1003.9 +33.3
18 15.06 штиль 0 10 км ясно +23.5 +10.7 44 +25 +25 комфорт 1010.9 1004.5
21 15.06 штиль 0 10 км ясно +21.7 +5.7 35 +22 +22 комфорт 1010.5 1004.2
00 16.06 штиль 0 10 км ясно +17.2 +7.7 54 +17 +17 1009.9 1003.5
03 16.06 СВ 1 10 км ясно +18.7 +6.9 46 +20 +22 1009.8 1003.3 +16.1
06 16.06 СВ 1 10 км ясно +28.8 +8.2 27 +28 +41 жарко 1009.8 1003.5
09 16.06 СВ 2 10 км ясно +33.5 +8.6 22 +32 +51 опасность
солнечного
удара
1009.3 1003.2
12 16.06 СВ 2 10 км ясно +35.2 +5.7 16 +33 +46 жарко 1008.2 1002.1
15 16.06 В 1 10 км 1/0
[Ac trans]
+33.8 +5.6 17 +31 +34 жарко 1007.5 1001.4 +35.7
18 16.06 штиль 0 10 км 1/0
[Ci fib]
+24.8 +13.0 48 +27 +27 жарко 1007.3 1001.0
21 16.06 штиль 0 10 км ясно +21.6 +12.7 57 +24 +24 комфорт 1007.8 1001.4
00 17.06 С 1 10 км ясно +19.5 +14.6 73 +22 +22 комфорт 1008.9 1002.5
03 17.06 С 1 10 км ясно +18.5 +14.1 76 +20 +22 1010.3 1003.9 +17.9
06 17.06 С 2 10 км ясно +24.8 +14.6 53 +27 +38 жарко 1011.1 1004.8
09 17.06 С 1 10 км ясно +29.6 +14.0 39 +32 +54 опасность
солнечного
удара
1011.1 1004.9
12 17.06 С 2 10 км 3/3 1000 м
[Cu hum]
+31.3 +12.2 31 +32 +41 жарко 1010.1 1003.9
15 17.06 С 1 10 км 4/4 1000 м
[Cu med, cong]
+30.1 +11.5 32 +31 +33 жарко 1010.4 1004.2 +31.9

 

Местоположение метеостанции Сосыка (Краснодарский край, Россия): широта 46.13 долгота 39.83 высота над уровнем моря 55 м.

В архиве по умолчанию представлена погода в Сосыке за последнюю неделю. Архивные данные за месяц целиком и за предыдущие месяцы, начиная с января 2011 года, Вы можете получить, выбрав интересующий диапазон дат из раскрывающегося списка и нажав кнопку "Ввод!".


*Определитесь, кто Вы:
робот инопланетянин человек

Внимание! Время в таблицах - всемирное. Для получения местного времени необходимо прибавить поправку, которая равна 3 ч.

Смотрите также архив погоды в соседних городах и на ближайших метеорологических станциях:

Погода в Тихорецке (Краснодарский край, Россия) (37 км)
Погода в Кущевской (Краснодарский край, Россия) (47 км)
Погода в Каневской (Краснодарский край, Россия) (67 км)
Погода в Староминская (Краснодарский край, Россия) (76 км)
Погода в Кореновске (Краснодарский край, Россия) (78 км)
Погода в Белой Глине (Краснодарский край, Россия) (81 км)
Погода в Зерноград (Ростовская область, Россия) (88 км)
Погода в Тимашевске (Краснодарский край, Россия) (89 км)
Погода в Кропоткине (Краснодарский край, Россия) (97 км)
Погода в Усть-Лабинске (Краснодарский край, Россия) (100 км)

Пояснения к столбцам:

Ветер - указаны скорость ветра в м/с - средняя за 10 мин, порывы в срок и между сроками (в фигурных скобках) и направление, откуда дует ветер: С - северный, СВ - северо-восточный, В - восточный, ЮВ - юго-восточный, Ю - южный, ЮЗ - юго-западный, З - западный, СЗ - северо-западный.
Видимость - горизонтальная дальность видимости в метрах или километрах. При видимости от 1 до 10 км при отсутствии осадков обычно наблюдается дымка, при ухудшении видимости до 1 км и менее - туман. В сухую погоду видимость может ухудшаться дымом, пылью или мглою.
Явления - указаны атмосферные явления, наблюдавшиеся в срок или в последний час перед сроком; фигурными скобками обозначены явления, наблюдавшиеся между сроками (за 1-3 часа до срока); квадратными скобками обозначены град или гололедные отложения с указанием их диаметра в мм.
Облачность - указаны через наклонную черту общая и нижняя облачность в баллах и высота нижней границы облаков в метрах; квадратными скобками обозначены формы облаков: Ci - перистые, Cs - перисто-слоистые, Cc - перисто-кучевые, Ac - высококучевые, As - высокослоистые, Sc - слоисто-кучевые, Ns - слоисто-дождевые, Cu - кучевые, Cb - кучево-дождевые. Подробнее классификацию облаков см. в Атласе облаков (PDF).
T - Температура воздуха - температура, измеренная на высоте 2 м над землей.
Td - Температура точки росы - температура, при понижении до которой содержащийся в воздухе водяной пар достигнет насыщения.
f - Относительная влажность воздуха - влажноcть воздуха, измеренная на высоте 2 м над землей.
Te - Эффективная температура - температура, которую ощущает одетый по сезону человек в тени. Характеристика душности погоды. При расчете учитывается влияние влажности воздуха и скорости ветра на теплоощущения человека.
Tes - Эффективная температура на солнце - температура, которую ощущает человек, с поправкой на солнечный нагрев. Характеристика знойности погоды. Зависит от высоты солнца над горизонтом, облачности и скорости ветра. Ночью, в пасмурную погоду, а также при ветре 12 м/с и более поправка равна нулю.
P - Атмосферное давление - приведенное к уровню моря атмосферное давление.
Po - Атмосферное давление - измеренное на уровне метеостанции атмосферное давление.
Tmin - Минимальная температура - минимум температуры воздуха на высоте 2 м над землей.
Tmax - Максимальная температура - максимум температуры воздуха на высоте 2 м над землей.
R - Количество осадков - Количество выпавших осадков за период времени, мм. При наведении курсора мыши на число - период времени, за который выпало указанное количество осадков.
R24 - Количество осадков - Количество выпавших осадков за 24 часа, мм.
S - Снежный покров - Высота снежного покрова, см. При наведении курсора мыши на число - состояние снежного покрова и степень покрытия местности в баллах.